Location: �quirre
(50.4736°N, 2.2351°E)
Time: 05:26:19
(UTC+00:00)

Cosmos 724 - Pass Details

Date: 07 August 2020
Orbit: 856 x 939 km, 65.6° (Epoch: 23 September)

Event Time Altitude Azimuth Distance (km) Brightness Sun altitude
Rises 03:26:45 0° 318° (NW) 3,511 7.4 -8.9°
Reaches altitude 10° 03:29:16 10° 314° (NW) 2,580 6.7 -8.6°
Maximum altitude 03:35:06 54° 239° (WSW) 1,096 4.5 -7.9°
Drops below altitude 10° 03:41:00 10° 164° (SSE) 2,618 6.6 -7.2°
Sets 03:43:35 0° 160° (SSE) 3,567 7.3 -6.8°
